Location: Baix
(44.7118°N, 4.7648°E)
Time: 23:38:04
(UTC+00:00)

Explorer 7 - Visible Passes

Search period start: 05 December 2020 00:00
Search period end: 15 December 2020 00:00
Orbit: 484 x 678 km, 50.3° (Epoch: 05 December)

Date Brightness Start Highest point End Pass type
(mag) Time Alt. Az. Time Alt. Az. Time Alt. Az.
05 Dec 10.0 03:33:03 13° E 03:33:03 13° E 03:33:29 10° E visible
05 Dec 7.1 05:09:22 45° WSW 05:09:58 49° SW 05:13:51 10° SE visible
06 Dec 9.9 03:37:46 13° ESE 03:37:46 13° ESE 03:38:15 10° ESE visible
06 Dec 7.7 05:14:05 31° SW 05:14:27 32° SW 05:18:02 10° SSE visible
07 Dec 9.8 03:42:33 13° ESE 03:42:33 13° ESE 03:42:57 10° ESE visible
07 Dec 8.4 05:18:52 21° SW 05:18:52 21° SW 05:21:54 10° S visible
08 Dec 9.9 03:47:24 11° SE 03:47:24 11° SE 03:47:29 10° SE visible
08 Dec 9.0 05:23:43 13° SW 05:23:43 13° SW 05:25:06 10° SSW visible
13 Dec 9.6 18:05:17 10° SSE 18:05:24 10° SSE 18:05:24 10° SSE visible
14 Dec 9.1 18:08:05 10° S 18:10:20 18° SSE 18:10:20 18° SSE visible
